Pipestone, MN

8:34 AM CST on February 24, 2018 (GMT -0600)
Pipestone Municipal

Weather History for KPQN - November, 2013

Change the Weather History Date:

Tuesday, November 5, 2013

  Actual Average Record
Temperature  
Mean Temperature 32 °F -  
Max Temperature 35 °F 45 °F 73 °F (2001)
Min Temperature 28 °F 27 °F 3 °F (1999)
Degree Days  
Heating Degree Days 34    
Moisture  
Dew Point 26 °F    
Average Humidity 82    
Maximum Humidity 100    
Minimum Humidity 56    
Precipitation  
Precipitation 0.00 in - - ()
Sea Level Pressure  
Sea Level Pressure 30.11 in    
Wind  
Wind Speed 5 mph (NE)    
Max Wind Speed 15 mph    
Max Gust Speed 21 mph    
Visibility 7 miles    
Events Snow    
Averages and records for this station are not official NWS values.
T = Trace of Precipitation, MM = Missing Value Source: NWS Daily Summary

Daily Weather History Graph

Daily Weather History Graph

Search for Another Location

Airport or City:

Trip Planner

Search our weather history database for the weather conditions in past years. The results will help you decide how hot, cold, wet, or windy it might be!

Date:

Astronomy

Nov. 05, 2013 Rise Set
Actual Time 7:07 AM CST 5:09 PM CST
Civil Twilight 6:36 AM CST 5:40 PM CST
Nautical Twilight 6:02 AM CST 6:14 PM CST
Astronomical Twilight 5:28 AM CST 6:48 PM CST
Moon 9:26 AM CST (11/5) 7:09 PM CST (11/5)
Length of Visible Light 11h 03m
Length of Day
10h 02m
Waxing Crescent, 7% of the Moon is Illuminated
Nov 5
Waxing Crescent
Nov 9
First Quarter
Nov 17
Full
Nov 25
Last Quarter
Dec 2
New

Hourly Weather History & Observations

Time (CST) Temp. Windchill Dew Point Humidity Pressure Visibility Wind Dir Wind Speed Gust Speed Precip Events Conditions
12:14 AM 30.2 °F 26.7 °F 26.6 °F 86% 30.14 in 10.0 mi SW 3.5 mph - N/A   Clear
12:33 AM 30.2 °F - 26.6 °F 86% 30.14 in 10.0 mi Calm Calm - N/A   Clear
12:53 AM 30.2 °F - 26.6 °F 86% 30.14 in 10.0 mi Calm Calm - N/A   Clear
1:13 AM 30.2 °F - 26.6 °F 86% 30.14 in 10.0 mi Calm Calm - N/A   Clear
1:33 AM 30.2 °F - 26.6 °F 86% 30.15 in 10.0 mi Calm Calm - N/A   Clear
1:53 AM 30.2 °F 26.7 °F 24.8 °F 80% 30.14 in 10.0 mi North 3.5 mph - N/A   Clear
2:13 AM 28.4 °F 24.6 °F 24.8 °F 86% 30.14 in 10.0 mi North 3.5 mph - N/A   Clear
2:34 AM 28.4 °F - 24.8 °F 86% 30.14 in 10.0 mi Calm Calm - N/A   Clear
2:53 AM 28.4 °F 24.6 °F 26.6 °F 93% 30.14 in 10.0 mi North 3.5 mph - N/A   Scattered Clouds
3:13 AM 28.4 °F 24.6 °F 26.6 °F 93% 30.14 in 10.0 mi NE 3.5 mph - N/A   Mostly Cloudy
3:33 AM 30.2 °F - 26.6 °F 86% 30.14 in 10.0 mi Calm Calm - N/A   Overcast
3:53 AM 32.0 °F - 26.6 °F 80% 30.15 in 10.0 mi Calm Calm - N/A   Overcast
4:13 AM 33.8 °F 30.8 °F 26.6 °F 75% 30.15 in 10.0 mi NE 3.5 mph - N/A   Overcast
4:33 AM 33.8 °F 30.8 °F 26.6 °F 75% 30.16 in 10.0 mi ENE 3.5 mph - N/A   Overcast
4:53 AM 33.8 °F - 26.6 °F 75% 30.16 in 10.0 mi Calm Calm - N/A   Overcast
5:13 AM 33.8 °F - 26.6 °F 75% 30.16 in 10.0 mi Calm Calm - N/A   Overcast
5:33 AM 33.8 °F 30.8 °F 26.6 °F 75% 30.16 in 10.0 mi NNE 3.5 mph - N/A   Overcast
5:54 AM 33.8 °F 30.8 °F 26.6 °F 75% 30.15 in 10.0 mi NNE 3.5 mph - N/A   Overcast
6:13 AM 35.6 °F - 26.6 °F 70% 30.16 in 10.0 mi Calm Calm - N/A   Overcast
6:33 AM 33.8 °F 30.8 °F 24.8 °F 70% 30.15 in 10.0 mi NE 3.5 mph - N/A   Overcast
6:53 AM 33.8 °F 29.6 °F 24.8 °F 70% 30.14 in 10.0 mi NE 4.6 mph - N/A   Overcast
7:13 AM 33.8 °F 30.8 °F 24.8 °F 70% 30.15 in 10.0 mi ENE 3.5 mph - N/A   Mostly Cloudy
7:33 AM 33.8 °F 28.6 °F 24.8 °F 70% 30.15 in 10.0 mi ENE 5.8 mph - N/A   Overcast
7:53 AM 33.8 °F 29.6 °F 23.0 °F 65% 30.16 in 10.0 mi ENE 4.6 mph - N/A   Overcast
8:13 AM 33.8 °F 27.7 °F 24.8 °F 70% 30.17 in 10.0 mi NE 6.9 mph - N/A   Overcast
8:34 AM 33.8 °F 28.6 °F 24.8 °F 70% 30.17 in 10.0 mi ENE 5.8 mph - N/A   Overcast
8:53 AM 33.8 °F 27.7 °F 24.8 °F 70% 30.18 in 10.0 mi ENE 6.9 mph - N/A   Overcast
9:13 AM 33.8 °F 30.8 °F 24.8 °F 70% 30.19 in 10.0 mi ENE 3.5 mph - N/A   Overcast
9:33 AM 33.8 °F 30.8 °F 26.6 °F 75% 30.20 in 10.0 mi NE 3.5 mph - N/A   Mostly Cloudy
9:53 AM 33.8 °F 27.7 °F 24.8 °F 70% 30.20 in 10.0 mi NE 6.9 mph - N/A   Scattered Clouds
10:13 AM 33.8 °F 25.8 °F 24.8 °F 70% 30.19 in 10.0 mi NE 10.4 mph - N/A   Scattered Clouds
10:33 AM 35.6 °F 28.0 °F 21.2 °F 56% 30.17 in 10.0 mi ENE 10.4 mph - N/A   Scattered Clouds
10:53 AM 35.6 °F 28.0 °F 21.2 °F 56% 30.17 in 10.0 mi ENE 10.4 mph - N/A   Scattered Clouds
11:13 AM 35.6 °F 30.7 °F 21.2 °F 56% 30.18 in 10.0 mi ENE 5.8 mph - N/A   Scattered Clouds
11:33 AM 35.6 °F 31.7 °F 21.2 °F 56% 30.18 in 10.0 mi ENE 4.6 mph - N/A   Scattered Clouds
11:53 AM 35.6 °F 32.8 °F 21.2 °F 56% 30.17 in 10.0 mi ENE 3.5 mph - N/A   Scattered Clouds
12:13 PM 35.6 °F 28.6 °F 21.2 °F 56% 30.15 in 10.0 mi NE 9.2 mph - N/A   Scattered Clouds
12:34 PM 35.6 °F 29.2 °F 21.2 °F 56% 30.13 in 10.0 mi NE 8.1 mph - N/A   Scattered Clouds
12:53 PM 35.6 °F 28.6 °F 21.2 °F 56% 30.12 in 10.0 mi ENE 9.2 mph - N/A   Mostly Cloudy
1:13 PM 35.6 °F 29.9 °F 21.2 °F 56% 30.12 in 10.0 mi East 6.9 mph - N/A   Scattered Clouds
1:33 PM 35.6 °F 27.5 °F 24.8 °F 65% 30.10 in 2.5 mi East 11.5 mph 18.4 mph N/A Snow Light Snow
1:53 PM 32.0 °F 24.2 °F 28.4 °F 87% 30.10 in 0.8 mi ENE 9.2 mph - N/A Snow Snow
2:14 PM 30.2 °F 21.9 °F 28.4 °F 93% 30.08 in 0.5 mi ENE 9.2 mph 16.1 mph N/A Snow Light Snow
2:33 PM 30.2 °F 20.8 °F 28.4 °F 93% 30.07 in 0.5 mi NE 11.5 mph 16.1 mph N/A Snow Snow
2:53 PM 30.2 °F 21.9 °F 28.4 °F 93% 30.06 in 0.5 mi ENE 9.2 mph - N/A Snow Snow
3:13 PM 30.2 °F 21.3 °F 28.4 °F 93% 30.05 in 0.5 mi NE 10.4 mph - N/A Snow Snow
3:33 PM 30.2 °F 20.8 °F 28.4 °F 93% 30.04 in 0.5 mi NE 11.5 mph - N/A Snow Snow
3:53 PM 30.2 °F 21.9 °F 30.2 °F 100% 30.04 in 0.5 mi NE 9.2 mph - N/A Snow Snow
4:13 PM 30.2 °F 21.3 °F 30.2 °F 100% 30.03 in 0.8 mi NE 10.4 mph - N/A Snow Light Snow
4:33 PM 30.2 °F 21.9 °F 28.4 °F 93% 30.04 in 0.5 mi NE 9.2 mph 18.4 mph N/A Snow Light Snow
4:53 PM 30.2 °F 20.2 °F 28.4 °F 93% 30.03 in 0.8 mi NE 12.7 mph - N/A Snow Light Snow
5:13 PM 30.2 °F 20.2 °F 28.4 °F 93% 30.04 in 1.0 mi NNE 12.7 mph - N/A Snow Light Snow
5:33 PM 30.2 °F 20.2 °F 28.4 °F 93% 30.04 in 2.0 mi NNE 12.7 mph 18.4 mph N/A Snow Light Snow
5:53 PM 30.2 °F 19.3 °F 28.4 °F 93% 30.04 in 2.0 mi NNE 15.0 mph - N/A Snow Light Snow
6:13 PM 30.2 °F 22.6 °F 28.4 °F 93% 30.05 in 1.5 mi NNE 8.1 mph - N/A Snow Light Snow
6:34 PM 30.2 °F 20.8 °F 28.4 °F 93% 30.04 in 1.8 mi NNE 11.5 mph - N/A Snow Light Snow
6:53 PM 30.2 °F 20.8 °F 28.4 °F 93% 30.04 in 2.0 mi NNE 11.5 mph 19.6 mph N/A Snow Light Snow
7:13 PM 30.2 °F 19.8 °F 28.4 °F 93% 30.04 in 2.5 mi NNE 13.8 mph - N/A Snow Light Snow
7:33 PM 30.2 °F 20.8 °F 28.4 °F 93% 30.04 in 2.5 mi NNE 11.5 mph 20.7 mph N/A Snow Light Snow
7:53 PM 30.2 °F 20.2 °F 28.4 °F 93% 30.04 in 2.5 mi NNE 12.7 mph - N/A Snow Light Snow
8:13 PM 30.2 °F 21.3 °F 28.4 °F 93% 30.04 in 2.5 mi North 10.4 mph 16.1 mph N/A Snow Light Snow
8:33 PM 30.2 °F 21.3 °F 28.4 °F 93% 30.05 in 2.5 mi North 10.4 mph - N/A Snow Light Snow
8:53 PM 30.2 °F 20.2 °F 28.4 °F 93% 30.05 in 1.2 mi North 12.7 mph 20.7 mph N/A Snow Light Snow
9:13 PM 30.2 °F 20.2 °F 28.4 °F 93% 30.06 in 1.8 mi North 12.7 mph 19.6 mph N/A Snow Light Snow
9:33 PM 28.4 °F 19.1 °F 28.4 °F 100% 30.06 in - North 10.4 mph 16.1 mph N/A   Overcast
9:54 PM 28.4 °F 19.1 °F 28.4 °F 100% 30.06 in - North 10.4 mph - N/A   Overcast
10:13 PM 28.4 °F 18.5 °F 28.4 °F 100% 30.06 in - North 11.5 mph 17.3 mph N/A   Overcast
10:33 PM 28.4 °F 18.5 °F 28.4 °F 100% 30.06 in - North 11.5 mph 17.3 mph N/A   Unknown
10:53 PM 28.4 °F 19.7 °F 28.4 °F 100% 30.07 in - North 9.2 mph 17.3 mph N/A   Overcast
11:13 PM 30.2 °F 22.6 °F 28.4 °F 93% 30.07 in - North 8.1 mph - N/A   Unknown
11:33 PM 30.2 °F 21.3 °F 28.4 °F 93% 30.06 in 3.0 mi North 10.4 mph - N/A Snow Light Snow
11:53 PM 30.2 °F 22.6 °F 28.4 °F 93% 30.07 in 4.0 mi North 8.1 mph - N/A Snow Light Snow